| time (UTC) | temp F | wind direction | speed MPH | gust MPH | rain 1hr in | rain 24hr in | rain mn in | humidity % | barometer mb |
| 20260505073718 | 56 | 253 | 2.0 | 6.0 | 0.00 | 0.00 | 0.00 | 86 | 969.1 |
| 20260505073003 | 56 | 258 | 1.0 | 4.0 | 0.00 | 0.00 | 0.00 | 87 | 968.9 |
| 20260505072503 | 56 | 189 | 1.0 | 5.0 | 0.00 | 0.00 | 0.00 | 87 | 968.6 |
| 20260505072003 | 56 | 172 | 1.0 | 5.0 | 0.00 | 0.00 | 0.00 | 86 | 968.5 |
| 20260505071718 | 56 | 194 | 1.0 | 5.0 | 0.00 | 0.00 | 0.00 | 86 | 968.3 |
| 20260505071003 | 56 | 241 | 1.0 | 2.0 | 0.00 | 0.00 | 0.00 | 86 | 968.7 |
| 20260505070503 | 56 | 246 | 0.0 | 2.0 | 0.00 | 0.00 | 0.00 | 86 | 968.8 |
| 20260505070003 | 56 | 311 | 0.0 | 1.0 | 0.00 | 0.00 | 0.00 | 85 | 968.3 |
| 20260505065503 | 57 | 273 | 0.0 | 1.0 | 0.00 | 0.00 | 0.00 | 85 | 968.6 |
| 20260505065003 | 57 | 259 | 1.0 | 3.0 | 0.00 | 0.00 | 0.00 | 84 | 968.6 |
| 20260505064718 | 57 | 257 | 1.0 | 3.0 | 0.00 | 0.00 | 0.00 | 84 | 968.6 |
| 20260505064003 | 57 | 245 | 1.0 | 4.0 | 0.00 | 0.00 | 0.00 | 83 | 968.4 |
| 20260505063503 | 57 | 219 | 2.0 | 6.0 | 0.00 | 0.00 | 0.00 | 83 | 968.7 |
| 20260505063003 | 57 | 204 | 2.0 | 6.0 | 0.00 | 0.00 | 0.00 | 83 | 968.6 |
| 20260505062503 | 57 | 221 | 1.0 | 5.0 | 0.00 | 0.00 | 0.00 | 83 | 968.6 |
| 20260505062003 | 57 | 216 | 1.0 | 5.0 | 0.00 | 0.00 | 0.00 | 83 | 968.7 |
| 20260505061503 | 58 | 229 | 2.0 | 8.0 | 0.00 | 0.00 | 0.00 | 82 | 969.0 |
| 20260505061003 | 58 | 242 | 3.0 | 8.0 | 0.00 | 0.00 | 0.00 | 80 | 969.2 |
| 20260505060503 | 58 | 244 | 5.0 | 18.0 | 0.00 | 0.00 | 0.00 | 80 | 969.3 |
| 20260505060004 | 58 | 245 | 6.0 | 18.0 | 0.00 | 0.00 | 0.00 | 80 | 969.6 |
| 20260505055503 | 58 | 245 | 5.0 | 11.0 | 0.00 | 0.00 | 0.00 | 81 | 969.5 |
| 20260505055003 | 58 | 243 | 4.0 | 11.0 | 0.00 | 0.00 | 0.00 | 82 | 969.5 |
| 20260505054503 | 57 | 242 | 3.0 | 9.0 | 0.00 | 0.00 | 0.00 | 83 | 969.5 |
| 20260505054003 | 57 | 245 | 4.0 | 9.0 | 0.00 | 0.00 | 0.00 | 84 | 969.3 |
| 20260505053503 | 57 | 244 | 4.0 | 10.0 | 0.00 | 0.00 | 0.00 | 84 | 969.0 |
| 20260505053003 | 57 | 241 | 4.0 | 10.0 | 0.00 | 0.00 | 0.00 | 84 | 968.9 |
| 20260505052503 | 57 | 233 | 4.0 | 11.0 | 0.00 | 0.00 | 0.00 | 84 | 968.6 |
| 20260505052003 | 57 | 231 | 4.0 | 11.0 | 0.00 | 0.00 | 0.00 | 83 | 968.7 |
| 20260505051503 | 57 | 222 | 4.0 | 11.0 | 0.00 | 0.00 | 0.00 | 84 | 968.6 |
| 20260505051003 | 57 | 216 | 3.0 | 11.0 | 0.00 | 0.00 | 0.00 | 84 | 968.4 |
| 20260505050503 | 57 | 219 | 3.0 | 8.0 | 0.00 | 0.00 | 0.00 | 85 | 968.8 |
| 20260505041503 | 60 | 240 | 11.0 | 28.0 | 0.00 | 0.00 | 0.00 | 79 | 969.8 |
| 20260505041003 | 61 | 240 | 14.0 | 30.0 | 0.00 | 0.00 | 0.00 | 72 | 969.5 |
| 20260505040503 | 64 | 240 | 14.0 | 31.0 | 0.00 | 0.00 | 0.00 | 63 | 969.5 |
| 20260505040218 | 65 | 238 | 14.0 | 31.0 | 0.00 | 0.00 | 0.00 | 59 | 969.4 |
| 20260505035503 | 66 | 238 | 10.0 | 27.0 | 0.00 | 0.00 | 0.00 | 57 | 969.0 |
| 20260505035218 | 66 | 239 | 8.0 | 17.0 | 0.00 | 0.00 | 0.00 | 58 | 968.9 |
| 20260505034717 | 66 | 235 | 6.0 | 14.0 | 0.00 | 0.00 | 0.00 | 60 | 968.8 |
| 20260505034003 | 66 | 233 | 5.0 | 13.0 | 0.00 | 0.00 | 0.00 | 61 | 968.7 |
| 20260505033503 | 66 | 230 | 5.0 | 13.0 | 0.00 | 0.00 | 0.00 | 61 | 968.7 |
| 20260505033003 | 65 | 231 | 5.0 | 13.0 | 0.00 | 0.00 | 0.00 | 61 | 968.4 |
| 20260505032503 | 65 | 233 | 4.0 | 13.0 | 0.00 | 0.00 | 0.00 | 62 | 968.5 |
| 20260505032003 | 65 | 237 | 5.0 | 10.0 | 0.00 | 0.00 | 0.00 | 62 | 968.5 |
| 20260505031503 | 65 | 234 | 4.0 | 10.0 | 0.00 | 0.00 | 0.00 | 62 | 968.8 |
| 20260505031003 | 65 | 227 | 4.0 | 9.0 | 0.00 | 0.00 | 0.00 | 62 | 968.5 |
| 20260505030503 | 65 | 233 | 4.0 | 9.0 | 0.00 | 0.00 | 0.00 | 62 | 968.5 |
| 20260505030004 | 65 | 238 | 5.0 | 11.0 | 0.00 | 0.00 | 0.00 | 62 | 968.4 |
| 20260505025503 | 65 | 237 | 5.0 | 11.0 | 0.00 | 0.00 | 0.00 | 62 | 968.7 |
| 20260505025004 | 64 | 238 | 5.0 | 11.0 | 0.00 | 0.00 | 0.00 | 63 | 968.6 |
| 20260505024503 | 64 | 250 | 4.0 | 11.0 | 0.00 | 0.00 | 0.00 | 64 | 968.6 |
| 20260505024003 | 64 | 257 | 3.0 | 9.0 | 0.00 | 0.00 | 0.00 | 64 | 968.4 |
| 20260505023503 | 64 | 249 | 3.0 | 9.0 | 0.00 | 0.00 | 0.00 | 65 | 968.6 |
| 20260505023003 | 63 | 244 | 2.0 | 8.0 | 0.00 | 0.00 | 0.00 | 66 | 968.6 |
| 20260505022503 | 63 | 243 | 2.0 | 8.0 | 0.00 | 0.00 | 0.00 | 66 | 968.7 |
| 20260505022003 | 64 | 226 | 2.0 | 6.0 | 0.00 | 0.00 | 0.00 | 66 | 968.6 |
| 20260505021718 | 64 | 220 | 2.0 | 6.0 | 0.00 | 0.00 | 0.00 | 66 | 968.5 |
| 20260505021003 | 64 | 225 | 3.0 | 9.0 | 0.00 | 0.00 | 0.00 | 65 | 968.6 |
| 20260505020503 | 64 | 237 | 3.0 | 8.0 | 0.00 | 0.00 | 0.00 | 65 | 968.6 |
| 20260505020003 | 64 | 236 | 3.0 | 8.0 | 0.00 | 0.00 | 0.00 | 64 | 968.4 |
| 20260505015503 | 64 | 238 | 3.0 | 8.0 | 0.00 | 0.00 | 0.00 | 64 | 968.4 |
| 20260505015217 | 64 | 240 | 4.0 | 10.0 | 0.00 | 0.00 | 0.00 | 64 | 968.7 |
| 20260505014503 | 64 | 240 | 4.0 | 16.0 | 0.00 | 0.00 | 0.00 | 64 | 968.3 |
| 20260505014003 | 64 | 239 | 3.0 | 9.0 | 0.00 | 0.00 | 0.00 | 64 | 968.4 |
| 20260505013503 | 64 | 239 | 4.0 | 11.0 | 0.00 | 0.00 | 0.00 | 64 | 968.2 |
| 20260505013003 | 65 | 238 | 4.0 | 15.0 | 0.00 | 0.00 | 0.00 | 63 | 968.4 |
| 20260505012503 | 65 | 229 | 5.0 | 15.0 | 0.00 | 0.00 | 0.00 | 62 | 968.2 |
| 20260505012003 | 65 | 225 | 5.0 | 11.0 | 0.00 | 0.00 | 0.00 | 63 | 968.3 |
| 20260505011505 | 64 | 230 | 4.0 | 11.0 | 0.00 | 0.00 | 0.00 | 65 | 968.5 |
| 20260505011003 | 64 | 229 | 3.0 | 8.0 | 0.00 | 0.00 | 0.00 | 67 | 968.3 |
| 20260505010503 | 64 | 232 | 3.0 | 6.0 | 0.00 | 0.00 | 0.00 | 67 | 968.2 |
| 20260505010003 | 64 | 229 | 3.0 | 13.0 | 0.00 | 0.00 | 0.00 | 66 | 968.3 |
| 20260505005718 | 64 | 229 | 3.0 | 13.0 | 0.00 | 0.00 | 0.00 | 66 | 968.2 |
| 20260505005217 | 64 | 235 | 3.0 | 8.0 | 0.00 | 0.00 | 0.00 | 66 | 968.1 |
| 20260505004503 | 65 | 237 | 3.0 | 10.0 | 0.00 | 0.00 | 0.00 | 64 | 968.0 |
| 20260505004003 | 65 | 234 | 4.0 | 10.0 | 0.00 | 0.00 | 0.00 | 64 | 968.1 |
| 20260505003503 | 65 | 230 | 4.0 | 8.0 | 0.00 | 0.00 | 0.00 | 64 | 967.9 |
| 20260505003217 | 65 | 228 | 4.0 | 8.0 | 0.00 | 0.00 | 0.00 | 64 | 967.9 |
| 20260505002503 | 65 | 233 | 4.0 | 10.0 | 0.00 | 0.00 | 0.00 | 64 | 967.7 |
| 20260505002004 | 65 | 238 | 4.0 | 11.0 | 0.00 | 0.00 | 0.00 | 64 | 967.6 |
| 20260505001503 | 65 | 234 | 4.0 | 11.0 | 0.00 | 0.00 | 0.00 | 64 | 967.5 |
| 20260505001003 | 65 | 233 | 5.0 | 12.0 | 0.00 | 0.00 | 0.00 | 64 | 967.8 |
| 20260505000503 | 65 | 230 | 5.0 | 12.0 | 0.00 | 0.00 | 0.00 | 65 | 967.7 |
| 20260505000219 | 64 | 231 | 6.0 | 12.0 | 0.00 | 0.00 | 0.00 | 65 | 968.0 |
| 20260504235503 | 64 | 227 | 6.0 | 15.0 | 0.00 | 0.00 | 0.00 | 66 | 967.8 |
| 20260504235003 | 64 | 226 | 6.0 | 13.0 | 0.00 | 0.00 | 0.00 | 66 | 967.7 |
| 20260504234503 | 65 | 228 | 6.0 | 16.0 | 0.00 | 0.00 | 0.00 | 64 | 967.9 |
| 20260504234003 | 65 | 228 | 7.0 | 18.0 | 0.00 | 0.00 | 0.00 | 62 | 967.9 |
| 20260504233503 | 66 | 231 | 7.0 | 18.0 | 0.00 | 0.00 | 0.00 | 61 | 968.2 |
| 20260504233003 | 66 | 236 | 7.0 | 15.0 | 0.00 | 0.00 | 0.00 | 58 | 968.1 |
| 20260504232503 | 67 | 231 | 7.0 | 15.0 | 0.00 | 0.00 | 0.00 | 57 | 967.8 |
| 20260504232003 | 68 | 225 | 8.0 | 17.0 | 0.00 | 0.00 | 0.00 | 53 | 967.6 |
| 20260504231503 | 69 | 229 | 9.0 | 17.0 | 0.00 | 0.00 | 0.00 | 49 | 967.6 |
| 20260504231003 | 72 | 234 | 7.0 | 16.0 | 0.00 | 0.00 | 0.00 | 43 | 967.7 |
| 20260504230503 | 74 | 234 | 5.0 | 12.0 | 0.00 | 0.00 | 0.00 | 40 | 967.1 |
| 20260504230003 | 74 | 239 | 5.0 | 14.0 | 0.00 | 0.00 | 0.00 | 40 | 967.3 |
| 20260504225503 | 75 | 243 | 7.0 | 16.0 | 0.00 | 0.00 | 0.00 | 39 | 967.4 |
| 20260504225003 | 75 | 239 | 7.0 | 16.0 | 0.00 | 0.00 | 0.00 | 39 | 967.3 |
| 20260504224503 | 74 | 238 | 6.0 | 13.0 | 0.00 | 0.00 | 0.00 | 39 | 967.4 |
| 20260504224003 | 75 | 244 | 6.0 | 15.0 | 0.00 | 0.00 | 0.00 | 39 | 967.3 |
| 20260504223503 | 76 | 242 | 6.0 | 15.0 | 0.00 | 0.00 | 0.00 | 37 | 967.3 |
| 20260504223003 | 76 | 240 | 6.0 | 13.0 | 0.00 | 0.00 | 0.00 | 37 | 967.2 |
| 20260504222717 | 76 | 240 | 6.0 | 13.0 | 0.00 | 0.00 | 0.00 | 37 | 967.1 |
| 20260504222003 | 76 | 244 | 7.0 | 19.0 | 0.00 | 0.00 | 0.00 | 37 | 967.4 |
| 20260504221503 | 76 | 240 | 8.0 | 19.0 | 0.00 | 0.00 | 0.00 | 37 | 967.5 |
| 20260504221003 | 76 | 236 | 6.0 | 18.0 | 0.00 | 0.00 | 0.00 | 37 | 967.5 |
| 20260504220503 | 76 | 242 | 6.0 | 17.0 | 0.00 | 0.00 | 0.00 | 38 | 967.7 |
| 20260504220218 | 75 | 238 | 7.0 | 17.0 | 0.00 | 0.00 | 0.00 | 39 | 967.8 |
| 20260504215503 | 75 | 240 | 7.0 | 19.0 | 0.00 | 0.00 | 0.00 | 39 | 967.7 |
| 20260504215217 | 75 | 244 | 7.0 | 19.0 | 0.00 | 0.00 | 0.00 | 39 | 967.9 |
| 20260504214503 | 74 | 234 | 6.0 | 13.0 | 0.00 | 0.00 | 0.00 | 40 | 968.2 |
| 20260504214003 | 74 | 225 | 5.0 | 19.0 | 0.00 | 0.00 | 0.00 | 41 | 968.1 |
| 20260504213503 | 74 | 219 | 6.0 | 19.0 | 0.00 | 0.00 | 0.00 | 40 | 968.0 |
| 20260504213003 | 74 | 226 | 6.0 | 17.0 | 0.00 | 0.00 | 0.00 | 40 | 968.0 |
| 20260504212503 | 75 | 240 | 9.0 | 21.0 | 0.00 | 0.00 | 0.00 | 38 | 968.3 |
| 20260504212003 | 74 | 237 | 8.0 | 21.0 | 0.00 | 0.00 | 0.00 | 37 | 968.1 |
| 20260504211716 | 75 | 237 | 7.0 | 19.0 | 0.00 | 0.00 | 0.00 | 36 | 968.1 |
| 20260504211003 | 75 | 241 | 6.0 | 14.0 | 0.00 | 0.00 | 0.00 | 37 | 968.3 |
| 20260504210503 | 75 | 241 | 6.0 | 15.0 | 0.00 | 0.00 | 0.00 | 36 | 968.2 |
| 20260504210217 | 75 | 241 | 7.0 | 20.0 | 0.00 | 0.00 | 0.00 | 35 | 968.5 |
| 20260504205716 | 74 | 237 | 8.0 | 21.0 | 0.00 | 0.00 | 0.00 | 34 | 968.5 |
| 20260504205003 | 74 | 234 | 9.0 | 26.0 | 0.00 | 0.00 | 0.00 | 34 | 968.6 |
| 20260504204503 | 74 | 236 | 10.0 | 26.0 | 0.00 | 0.00 | 0.00 | 33 | 968.7 |
| 20260504204003 | 75 | 236 | 9.0 | 21.0 | 0.00 | 0.00 | 0.00 | 32 | 968.7 |
| 20260504203503 | 75 | 239 | 8.0 | 21.0 | 0.00 | 0.00 | 0.00 | 32 | 968.7 |
| 20260504203003 | 74 | 235 | 8.0 | 23.0 | 0.00 | 0.00 | 0.00 | 32 | 968.6 |
| 20260504202503 | 75 | 234 | 7.0 | 23.0 | 0.00 | 0.00 | 0.00 | 31 | 968.7 |
| 20260504202217 | 76 | 237 | 7.0 | 23.0 | 0.00 | 0.00 | 0.00 | 30 | 968.7 |
| 20260504201503 | 75 | 231 | 9.0 | 23.0 | 0.00 | 0.00 | 0.00 | 30 | 968.6 |
| 20260504201003 | 75 | 233 | 10.0 | 23.0 | 0.00 | 0.00 | 0.00 | 29 | 968.8 |
| 20260504200503 | 75 | 240 | 8.0 | 19.0 | 0.00 | 0.00 | 0.00 | 29 | 968.6 |
| 20260504200003 | 75 | 247 | 8.0 | 20.0 | 0.00 | 0.00 | 0.00 | 29 | 969.2 |
| 20260504195718 | 75 | 241 | 9.0 | 20.0 | 0.00 | 0.00 | 0.00 | 29 | 968.8 |
| 20260504195003 | 75 | 234 | 9.0 | 20.0 | 0.00 | 0.00 | 0.00 | 29 | 969.0 |
| 20260504194503 | 74 | 237 | 9.0 | 18.0 | 0.00 | 0.00 | 0.00 | 29 | 968.9 |
| 20260504194003 | 76 | 231 | 8.0 | 20.0 | 0.00 | 0.00 | 0.00 | 28 | 969.1 |
| 20260504193503 | 75 | 236 | 8.0 | 20.0 | 0.00 | 0.00 | 0.00 | 29 | 969.1 |
| 20260504193003 | 75 | 242 | 9.0 | 25.0 | 0.00 | 0.00 | 0.00 | 28 | 968.9 |
| 20260504192503 | 75 | 244 | 10.0 | 30.0 | 0.00 | 0.00 | 0.00 | 28 | 969.1 |
| 20260504192217 | 75 | 241 | 9.0 | 30.0 | 0.00 | 0.00 | 0.00 | 29 | 969.0 |
| 20260504191503 | 75 | 233 | 8.0 | 18.0 | 0.00 | 0.00 | 0.00 | 29 | 969.2 |
| 20260504191003 | 75 | 242 | 9.0 | 24.0 | 0.00 | 0.00 | 0.00 | 28 | 969.3 |
| 20260504190718 | 75 | 241 | 10.0 | 24.0 | 0.00 | 0.00 | 0.00 | 28 | 969.3 |
| 20260504190003 | 74 | 236 | 10.0 | 24.0 | 0.00 | 0.00 | 0.00 | 28 | 969.4 |
| 20260504185503 | 74 | 236 | 11.0 | 24.0 | 0.00 | 0.00 | 0.00 | 28 | 969.3 |
| 20260504185003 | 74 | 237 | 12.0 | 24.0 | 0.00 | 0.00 | 0.00 | 27 | 969.1 |
| 20260504184503 | 74 | 235 | 11.0 | 23.0 | 0.00 | 0.00 | 0.00 | 27 | 969.7 |
| 20260504184003 | 75 | 228 | 8.0 | 23.0 | 0.00 | 0.00 | 0.00 | 27 | 969.5 |
| 20260504183503 | 75 | 225 | 8.0 | 21.0 | 0.00 | 0.00 | 0.00 | 28 | 969.6 |